Hourly Weather Roundup
Issued by NWS Central Illinois

Home | Current Version | Previous Version | Text Only | Print | Product List | Glossary On
Versions: 1 2 3 4 5 6 7 8 9 10 11 12 13 14 15 16 17 18 19 20 21 22 23 24 25 26 27 28 29 30 31 32 33 34 35 36 37 38 39 40 41 42 43 44 45 46 47 48 49 50
000
NZUS43 KILX 240110
HWRILX

AREA WEATHER ROUNDUP
NATIONAL WEATHER SERVICE, LINCOLN IL
800 PM CDT WED APR 23 2014


CITY           SKY/WX    TMP DP  RH WIND       PRES   REMARKS
BLOOMINGTON    LGT RAIN  50  37  60 E9        30.04F
CHAMPAIGN      LGT RAIN  56  36  47 E15       30.00F
DANVILLE       CLOUDY    57  28  33 CALM      30.05R
DECATUR        CLOUDY    58  28  32 E10       30.01F
FLORA          PTCLDY    59  33  37 E5        30.03F
GALESBURG      CLOUDY    50  39  65 E6        30.00R
JACKSONVILLE   CLOUDY    58  29  33 SE8       29.99F
LACON          LGT RAIN  51  39  64 E6        30.02R
LAWRENCEVILLE  PTCLDY    60  33  36 NE3       30.04S
LITCHFIELD     CLOUDY    56  35  45 E7        30.01R
$$


CITY           SKY/WX    TMP DP  RH WIND       PRES   REMARKS
LINCOLN        CLOUDY    57  32  38 E10       30.01R
MACOMB         CLOUDY    52  38  59 E10       29.98F
MATTOON        CLOUDY    57  31  37 E5        30.03F
MT CARMEL AP   PTCLDY    61  32  33 CALM      30.04S
OLNEY-NOBLE AP CLOUDY    55  39  54 CALM      30.03F
PARIS          CLOUDY    58  32  37 NE3       30.07R
PEORIA         CLOUDY    55  36  48 E15       30.00F
PONTIAC        CLOUDY    55  28  35 MISG      30.05F
RANTOUL        DRIZZLE   59  28  29 CALM      30.05F
ROBINSON       MOCLDY    59  35  39 N3        30.05S
SPRINGFIELD    CLOUDY    59  28  30 SE10      30.00F
TAYLORVILLE    CLOUDY    57  30  35 SE6       30.01R
$$

...REGIONAL REPORTS...


CITY           SKY/WX    TMP DP  RH WIND       PRES   REMARKS
CHICAGO O`HARE CLOUDY    42  18  37 NE10      30.12R
KANKAKEE       CLOUDY    46  30  55 NE12      30.10R
MOLINE         CLOUDY    49  39  68 SE9       29.99F
MOUNT VERNON   CLOUDY    59  30  33 E5        30.03S
PITTSFIELD     CLOUDY    58  34  40 E7        29.97F
QUINCY         MOCLDY    57  33  40 SE15      29.93F
ROCKFORD       CLOUDY    50  25  37 E14       30.06F
$$


CITY           SKY/WX    TMP DP  RH WIND       PRES   REMARKS
BURLINGTON     CLOUDY    52  39  61 E9        29.95S
CEDAR RAPIDS   LGT RAIN  46  42  86 E17       29.91F
DES MOINES     LGT RAIN  50  40  68 SE20G32   29.81F
KIRKSVILLE     CLOUDY    57  36  45 SE21G28   29.85F
OTTUMWA        CLOUDY    49  40  71 E13       29.86F
ST LOUIS       CLOUDY    62  34  35 E13       29.98S
$$


CITY           SKY/WX    TMP DP  RH WIND       PRES   REMARKS
TERRE HAUTE    MOCLDY    54  35  48 NE3       30.06R
EVANSVILLE     CLEAR     60  34  37 N3        30.03S
INDIANAPOLIS   MOCLDY    53  29  39 NE7       30.06S
LAFAYETTE      PTCLDY    53  28  38 E5        30.07S
MADISON        LGT RAIN  47  36  65 E10       30.05F
MILWAUKEE      CLOUDY    39  19  44 NE7       30.13F WCI  34
$$




USA.gov is the U.S. government's official web portal to all federal, state and local government web resources and services.